| time (UTC) | temp F | wind direction | speed MPH | gust MPH | rain 1hr in | rain 24hr in | rain mn in | humidity % | barometer mb |
| 20260901112539 | 62 | 68 | 0.0 | 0.0 | 0.00 | 0.00 | 0.00 | 97 | 1014.6 |
| 20260901112034 | 63 | 70 | 0.0 | 0.0 | 0.00 | 0.00 | 0.00 | 96 | 1014.6 |
| 20260901111533 | 63 | 70 | 0.0 | 0.0 | 0.00 | 0.00 | 0.00 | 96 | 1014.6 |
| 20260901111031 | 63 | 69 | 0.0 | 0.0 | 0.00 | 0.00 | 0.00 | 96 | 1014.6 |
| 20260901110527 | 63 | 70 | 0.0 | 0.0 | 0.00 | 0.00 | 0.00 | 96 | 1014.9 |
| 20260901110023 | 63 | 72 | 0.0 | 0.0 | 0.00 | 0.00 | 0.00 | 96 | 1014.6 |
| 20260901105520 | 63 | 73 | 0.0 | 0.0 | 0.00 | 0.00 | 0.00 | 96 | 1014.9 |
| 20260901105018 | 64 | 72 | 0.0 | 0.0 | 0.00 | 0.00 | 0.00 | 96 | 1014.9 |
| 20260901104515 | 63 | 72 | 0.0 | 0.0 | 0.00 | 0.00 | 0.00 | 96 | 1014.9 |
| 20260901104009 | 63 | 73 | 0.0 | 0.0 | 0.00 | 0.00 | 0.00 | 96 | 1014.9 |
| 20260901103504 | 64 | 73 | 0.0 | 0.0 | 0.00 | 0.00 | 0.00 | 96 | 1014.9 |
| 20260901103000 | 64 | 79 | 0.0 | 0.0 | 0.00 | 0.00 | 0.00 | 95 | 1014.9 |
| 20260901102454 | 64 | 82 | 0.0 | 0.0 | 0.00 | 0.00 | 0.00 | 95 | 1014.9 |
| 20260901101949 | 64 | 84 | 0.0 | 0.0 | 0.00 | 0.00 | 0.00 | 95 | 1014.6 |
| 20260901101443 | 64 | 91 | 0.0 | 0.0 | 0.00 | 0.00 | 0.00 | 95 | 1014.6 |
| 20260901100938 | 64 | 92 | 0.0 | 0.0 | 0.00 | 0.00 | 0.00 | 95 | 1014.9 |
| 20260901100432 | 64 | 102 | 0.0 | 0.0 | 0.00 | 0.00 | 0.00 | 95 | 1014.9 |
| 20260901095926 | 65 | 116 | 0.0 | 0.0 | 0.00 | 0.00 | 0.00 | 95 | 1014.9 |
| 20260901095425 | 64 | 133 | 0.0 | 0.0 | 0.00 | 0.00 | 0.00 | 95 | 1014.9 |
| 20260901094923 | 65 | 162 | 0.0 | 0.0 | 0.00 | 0.00 | 0.00 | 95 | 1014.6 |
| 20260901094424 | 65 | 177 | 0.0 | 0.0 | 0.00 | 0.00 | 0.00 | 95 | 1014.9 |
| 20260901093924 | 65 | 198 | 0.0 | 0.0 | 0.00 | 0.00 | 0.00 | 95 | 1014.9 |
| 20260901093424 | 65 | 225 | 0.0 | 0.0 | 0.00 | 0.00 | 0.00 | 95 | 1014.6 |
| 20260901092919 | 65 | 225 | 0.0 | 0.0 | 0.00 | 0.00 | 0.00 | 95 | 1014.9 |
| 20260901092415 | 65 | 231 | 0.0 | 0.0 | 0.00 | 0.00 | 0.00 | 95 | 1014.6 |
| 20260901091910 | 65 | 226 | 0.0 | 0.0 | 0.00 | 0.00 | 0.00 | 95 | 1014.9 |
| 20260901091410 | 65 | 236 | 0.0 | 0.0 | 0.00 | 0.00 | 0.00 | 95 | 1014.9 |
| 20260901090905 | 65 | 242 | 0.0 | 0.0 | 0.00 | 0.00 | 0.00 | 94 | 1014.9 |
| 20260901090400 | 65 | 245 | 0.0 | 0.0 | 0.00 | 0.00 | 0.00 | 94 | 1014.6 |
| 20260901085855 | 65 | 257 | 0.0 | 0.0 | 0.00 | 0.00 | 0.00 | 94 | 1014.9 |
| 20260901085351 | 65 | 245 | 0.0 | 0.0 | 0.00 | 0.00 | 0.00 | 94 | 1014.6 |
| 20260901084848 | 65 | 245 | 0.0 | 0.0 | 0.00 | 0.00 | 0.00 | 94 | 1014.9 |
| 20260901084343 | 65 | 269 | 0.0 | 0.0 | 0.00 | 0.00 | 0.00 | 95 | 1014.9 |
| 20260901083839 | 65 | 236 | 0.0 | 0.0 | 0.00 | 0.00 | 0.00 | 94 | 1014.9 |
| 20260901083338 | 65 | 178 | 0.0 | 0.0 | 0.00 | 0.00 | 0.00 | 94 | 1015.2 |
| 20260901082836 | 66 | 167 | 0.0 | 0.0 | 0.00 | 0.00 | 0.00 | 94 | 1014.9 |
| 20260901082332 | 65 | 129 | 0.0 | 0.0 | 0.00 | 0.00 | 0.00 | 94 | 1014.9 |
| 20260901081827 | 65 | 135 | 0.0 | 0.0 | 0.00 | 0.00 | 0.00 | 94 | 1014.9 |
| 20260901081322 | 65 | 145 | 0.0 | 0.0 | 0.00 | 0.00 | 0.00 | 94 | 1015.2 |
| 20260901080816 | 66 | 160 | 0.0 | 0.0 | 0.00 | 0.00 | 0.00 | 94 | 1014.9 |
| 20260901080311 | 66 | 190 | 0.0 | 0.0 | 0.00 | 0.00 | 0.00 | 94 | 1014.9 |
| 20260901075810 | 66 | 214 | 0.0 | 0.0 | 0.00 | 0.00 | 0.00 | 94 | 1014.9 |
| 20260901075307 | 66 | 236 | 0.0 | 0.0 | 0.00 | 0.00 | 0.00 | 94 | 1014.9 |
| 20260901074800 | 66 | 245 | 0.0 | 0.0 | 0.00 | 0.00 | 0.00 | 94 | 1014.9 |
| 20260901074255 | 66 | 265 | 0.0 | 0.0 | 0.00 | 0.00 | 0.00 | 94 | 1014.9 |
| 20260901073751 | 66 | 243 | 0.0 | 0.0 | 0.00 | 0.00 | 0.00 | 94 | 1014.9 |
| 20260901073246 | 67 | 242 | 0.0 | 0.0 | 0.00 | 0.00 | 0.00 | 94 | 1014.9 |
| 20260901072741 | 67 | 245 | 0.0 | 0.0 | 0.00 | 0.00 | 0.00 | 94 | 1014.9 |
| 20260901072237 | 67 | 232 | 0.0 | 0.0 | 0.00 | 0.00 | 0.00 | 94 | 1014.9 |
| 20260901071736 | 67 | 244 | 0.0 | 0.0 | 0.00 | 0.00 | 0.00 | 94 | 1014.9 |
| 20260901071237 | 67 | 242 | 0.0 | 0.0 | 0.00 | 0.00 | 0.00 | 94 | 1014.9 |
| 20260901070735 | 67 | 245 | 0.0 | 0.0 | 0.00 | 0.00 | 0.00 | 94 | 1014.9 |
| 20260901070231 | 67 | 216 | 0.0 | 0.0 | 0.00 | 0.00 | 0.00 | 94 | 1014.9 |
| 20260901065730 | 67 | 156 | 0.0 | 0.0 | 0.00 | 0.00 | 0.00 | 94 | 1014.9 |
| 20260901065226 | 67 | 232 | 0.0 | 0.0 | 0.00 | 0.00 | 0.00 | 94 | 1014.9 |
| 20260901064722 | 67 | 162 | 0.0 | 0.0 | 0.00 | 0.00 | 0.00 | 94 | 1014.9 |
| 20260901064218 | 67 | 174 | 0.0 | 0.0 | 0.00 | 0.00 | 0.00 | 94 | 1014.6 |
| 20260901063715 | 67 | 211 | 0.0 | 0.0 | 0.00 | 0.00 | 0.00 | 93 | 1014.9 |
| 20260901063210 | 67 | 221 | 0.0 | 0.0 | 0.00 | 0.00 | 0.00 | 93 | 1014.6 |
| 20260901062706 | 67 | 243 | 0.0 | 0.0 | 0.00 | 0.00 | 0.00 | 93 | 1014.9 |
| 20260901062202 | 67 | 273 | 0.0 | 0.0 | 0.00 | 0.00 | 0.00 | 93 | 1014.6 |
| 20260901061658 | 67 | 226 | 0.0 | 0.0 | 0.00 | 0.00 | 0.00 | 93 | 1014.6 |
| 20260901061157 | 67 | 213 | 0.0 | 0.0 | 0.00 | 0.00 | 0.00 | 93 | 1014.2 |
| 20260901060652 | 68 | 185 | 0.0 | 0.0 | 0.00 | 0.00 | 0.00 | 93 | 1014.6 |
| 20260901060148 | 68 | 168 | 0.0 | 0.0 | 0.00 | 0.00 | 0.00 | 93 | 1014.6 |
| 20260901055649 | 68 | 253 | 0.0 | 0.0 | 0.00 | 0.00 | 0.00 | 93 | 1014.2 |
| 20260901055145 | 68 | 231 | 0.0 | 0.0 | 0.00 | 0.00 | 0.00 | 93 | 1014.2 |
| 20260901054642 | 68 | 166 | 0.0 | 0.0 | 0.00 | 0.00 | 0.00 | 93 | 1014.6 |
| 20260901054138 | 68 | 267 | 0.0 | 0.0 | 0.00 | 0.00 | 0.00 | 93 | 1014.2 |
| 20260901053634 | 68 | 253 | 0.0 | 0.0 | 0.00 | 0.00 | 0.00 | 93 | 1014.6 |
| 20260901053129 | 68 | 243 | 0.0 | 0.0 | 0.00 | 0.00 | 0.00 | 93 | 1014.6 |
| 20260901052624 | 68 | 229 | 0.0 | 0.0 | 0.00 | 0.00 | 0.00 | 93 | 1014.2 |
| 20260901052119 | 68 | 204 | 0.0 | 0.0 | 0.00 | 0.00 | 0.00 | 93 | 1014.2 |
| 20260901051613 | 68 | 223 | 0.0 | 0.0 | 0.00 | 0.00 | 0.00 | 93 | 1014.2 |
| 20260901051111 | 68 | 285 | 0.0 | 0.0 | 0.00 | 0.00 | 0.00 | 93 | 1014.2 |
| 20260901050607 | 68 | 217 | 0.0 | 0.0 | 0.00 | 0.00 | 0.00 | 93 | 1014.2 |
| 20260901045557 | 68 | 159 | 0.0 | 0.0 | 0.00 | 0.00 | 0.00 | 93 | 1014.2 |
| 20260901045052 | 68 | 214 | 0.0 | 0.0 | 0.00 | 0.00 | 0.00 | 93 | 1014.2 |
| 20260901044548 | 68 | 215 | 0.0 | 0.0 | 0.00 | 0.00 | 0.00 | 93 | 1014.2 |
| 20260901044044 | 68 | 202 | 0.0 | 0.0 | 0.00 | 0.00 | 0.00 | 93 | 1013.9 |
| 20260901043539 | 68 | 225 | 0.0 | 0.0 | 0.00 | 0.00 | 0.00 | 93 | 1014.2 |
| 20260901043035 | 68 | 171 | 0.0 | 0.0 | 0.00 | 0.00 | 0.00 | 93 | 1013.9 |
| 20260901042534 | 69 | 230 | 0.0 | 0.0 | 0.00 | 0.00 | 0.00 | 93 | 1014.6 |
| 20260901042029 | 69 | 240 | 0.0 | 0.0 | 0.00 | 0.00 | 0.00 | 92 | 1014.2 |
| 20260901041525 | 69 | 218 | 0.0 | 0.0 | 0.00 | 0.00 | 0.00 | 92 | 1014.2 |
| 20260901041020 | 69 | 170 | 0.0 | 0.0 | 0.00 | 0.00 | 0.00 | 92 | 1013.9 |
| 20260901040519 | 68 | 209 | 0.0 | 0.0 | 0.00 | 0.00 | 0.00 | 91 | 1013.9 |
| 20260901040014 | 68 | 223 | 0.0 | 0.0 | 0.00 | 0.00 | 0.00 | 91 | 1013.9 |
| 20260901035512 | 68 | 184 | 0.0 | 0.0 | 0.00 | 0.00 | 0.00 | 91 | 1013.5 |
| 20260901035010 | 68 | 176 | 0.0 | 0.0 | 0.00 | 0.00 | 0.00 | 91 | 1013.5 |
| 20260901034510 | 68 | 236 | 0.0 | 0.0 | 0.00 | 0.00 | 0.00 | 92 | 1013.5 |
| 20260901034005 | 68 | 262 | 0.0 | 0.0 | 0.00 | 0.00 | 0.00 | 92 | 1013.2 |
| 20260901033458 | 69 | 245 | 0.0 | 0.0 | 0.00 | 0.00 | 0.00 | 92 | 1013.5 |
| 20260901032957 | 69 | 176 | 0.0 | 0.0 | 0.00 | 0.00 | 0.00 | 92 | 1013.2 |
| 20260901032452 | 69 | 171 | 0.0 | 0.0 | 0.00 | 0.00 | 0.00 | 92 | 1013.2 |
| 20260901031946 | 69 | 239 | 0.0 | 0.0 | 0.00 | 0.00 | 0.00 | 91 | 1013.2 |
| 20260901031442 | 69 | 238 | 0.0 | 0.0 | 0.00 | 0.00 | 0.00 | 91 | 1013.2 |
| 20260901030942 | 69 | 185 | 0.0 | 0.0 | 0.00 | 0.00 | 0.00 | 91 | 1013.2 |
| 20260901030438 | 69 | 235 | 0.0 | 0.0 | 0.00 | 0.00 | 0.00 | 91 | 1012.9 |
| 20260901025936 | 69 | 255 | 0.0 | 0.0 | 0.00 | 0.00 | 0.00 | 91 | 1012.9 |
| 20260901025432 | 69 | 240 | 0.0 | 0.0 | 0.00 | 0.00 | 0.00 | 91 | 1013.2 |
| 20260901024931 | 69 | 250 | 0.0 | 0.0 | 0.00 | 0.00 | 0.00 | 91 | 1012.9 |
| 20260901024425 | 69 | 242 | 0.0 | 0.0 | 0.00 | 0.00 | 0.00 | 91 | 1012.9 |
| 20260901023924 | 69 | 194 | 4.0 | 6.0 | 0.00 | 0.00 | 0.00 | 91 | 1012.5 |
| 20260901023419 | 69 | 221 | 4.0 | 6.0 | 0.00 | 0.00 | 0.00 | 90 | 1012.9 |
| 20260901022914 | 69 | 267 | 7.0 | 9.0 | 0.00 | 0.00 | 0.00 | 90 | 1012.9 |
| 20260901022410 | 69 | 236 | 5.0 | 6.0 | 0.00 | 0.00 | 0.00 | 90 | 1012.9 |
| 20260901021905 | 69 | 241 | 8.0 | 9.0 | 0.00 | 0.00 | 0.00 | 90 | 1012.9 |
| 20260901021401 | 69 | 231 | 2.0 | 3.0 | 0.00 | 0.00 | 0.00 | 90 | 1012.9 |
| 20260901020856 | 69 | 254 | 2.0 | 3.0 | 0.00 | 0.00 | 0.00 | 90 | 1012.9 |
| 20260901020351 | 70 | 283 | 1.0 | 3.0 | 0.00 | 0.00 | 0.00 | 89 | 1012.9 |
| 20260901015850 | 70 | 250 | 7.0 | 9.0 | 0.00 | 0.00 | 0.00 | 88 | 1012.9 |
| 20260901015347 | 70 | 242 | 9.0 | 11.0 | 0.00 | 0.00 | 0.00 | 88 | 1012.9 |
| 20260901014846 | 70 | 245 | 3.0 | 6.0 | 0.00 | 0.00 | 0.00 | 88 | 1012.9 |
| 20260901014342 | 70 | 229 | 7.0 | 9.0 | 0.00 | 0.00 | 0.00 | 88 | 1012.9 |
| 20260901013837 | 71 | 235 | 6.0 | 9.0 | 0.00 | 0.00 | 0.00 | 87 | 1012.9 |
| 20260901013333 | 71 | 192 | 7.0 | 10.0 | 0.00 | 0.00 | 0.00 | 86 | 1012.9 |
| 20260901012828 | 71 | 155 | 5.0 | 7.0 | 0.00 | 0.00 | 0.00 | 86 | 1012.9 |
| 20260901012323 | 71 | 214 | 0.0 | 0.0 | 0.00 | 0.00 | 0.00 | 86 | 1012.9 |
| 20260901011819 | 71 | 229 | 5.0 | 8.0 | 0.00 | 0.00 | 0.00 | 86 | 1012.9 |
| 20260901011314 | 71 | 243 | 7.0 | 11.0 | 0.00 | 0.00 | 0.00 | 86 | 1012.9 |
| 20260901010807 | 72 | 264 | 8.0 | 10.0 | 0.00 | 0.00 | 0.00 | 86 | 1012.9 |
| 20260901010303 | 73 | 240 | 8.0 | 13.0 | 0.00 | 0.00 | 0.00 | 84 | 1012.9 |
| 20260901005801 | 73 | 224 | 7.0 | 10.0 | 0.00 | 0.00 | 0.00 | 84 | 1013.2 |
| 20260901005256 | 73 | 193 | 7.0 | 9.0 | 0.00 | 0.00 | 0.00 | 84 | 1013.2 |
| 20260901004750 | 73 | 238 | 8.0 | 10.0 | 0.00 | 0.00 | 0.00 | 84 | 1012.9 |
| 20260901004245 | 73 | 238 | 4.0 | 6.0 | 0.00 | 0.00 | 0.00 | 84 | 1013.2 |
| 20260901003745 | 73 | 160 | 8.0 | 11.0 | 0.00 | 0.00 | 0.00 | 83 | 1013.2 |
| 20260901003240 | 74 | 228 | 0.0 | 2.0 | 0.00 | 0.00 | 0.00 | 83 | 1012.9 |
| 20260901002738 | 73 | 210 | 6.0 | 8.0 | 0.00 | 0.00 | 0.00 | 83 | 1013.2 |
| 20260901002234 | 74 | 252 | 9.0 | 10.0 | 0.00 | 0.00 | 0.00 | 83 | 1012.9 |
| 20260901001729 | 74 | 282 | 11.0 | 14.0 | 0.00 | 0.00 | 0.00 | 83 | 1012.9 |
| 20260901001224 | 75 | 175 | 6.0 | 8.0 | 0.00 | 0.00 | 0.00 | 82 | 1012.9 |
| 20260901000720 | 74 | 272 | 11.0 | 14.0 | 0.00 | 0.00 | 0.00 | 83 | 1013.2 |
| 20260901000215 | 75 | 254 | 7.0 | 9.0 | 0.00 | 0.00 | 0.00 | 81 | 1012.9 |
| 20260831235714 | 75 | 184 | 11.0 | 13.0 | 0.00 | 0.00 | 0.00 | 82 | 1013.2 |
| 20260831235210 | 75 | 205 | 8.0 | 10.0 | 0.00 | 0.00 | 0.00 | 81 | 1012.9 |
| 20260831234709 | 75 | 192 | 10.0 | 13.0 | 0.00 | 0.00 | 0.00 | 81 | 1013.2 |
| 20260831234204 | 76 | 202 | 12.0 | 16.0 | 0.00 | 0.00 | 0.00 | 82 | 1013.2 |
| 20260831233659 | 76 | 205 | 3.0 | 5.0 | 0.00 | 0.00 | 0.00 | 82 | 1012.9 |
| 20260831233154 | 75 | 229 | 5.0 | 8.0 | 0.00 | 0.00 | 0.00 | 83 | 1013.2 |
| 20260831232649 | 76 | 226 | 7.0 | 9.0 | 0.00 | 0.00 | 0.00 | 82 | 1013.2 |
| 20260831232145 | 77 | 232 | 8.0 | 11.0 | 0.00 | 0.00 | 0.00 | 80 | 1012.9 |
| 20260831231641 | 76 | 226 | 5.0 | 7.0 | 0.00 | 0.00 | 0.00 | 82 | 1012.9 |
| 20260831231137 | 77 | 241 | 14.0 | 16.0 | 0.00 | 0.00 | 0.00 | 81 | 1013.2 |
| 20260831230632 | 77 | 241 | 6.0 | 7.0 | 0.00 | 0.00 | 0.00 | 81 | 1012.9 |
| 20260831230127 | 76 | 214 | 8.0 | 13.0 | 0.00 | 0.00 | 0.00 | 81 | 1012.9 |
| 20260831225621 | 78 | 215 | 8.0 | 9.0 | 0.00 | 0.00 | 0.00 | 79 | 1012.9 |
| 20260831225116 | 78 | 217 | 9.0 | 11.0 | 0.00 | 0.00 | 0.00 | 77 | 1012.9 |
| 20260831224611 | 77 | 284 | 11.0 | 14.0 | 0.00 | 0.00 | 0.00 | 79 | 1012.9 |
| 20260831224101 | 77 | 217 | 10.0 | 11.0 | 0.00 | 0.00 | 0.00 | 79 | 1013.2 |
| 20260831223557 | 77 | 235 | 8.0 | 13.0 | 0.00 | 0.00 | 0.00 | 79 | 1012.9 |
| 20260831223052 | 78 | 215 | 10.0 | 11.0 | 0.00 | 0.00 | 0.00 | 78 | 1012.9 |
| 20260831222548 | 78 | 216 | 9.0 | 11.0 | 0.00 | 0.00 | 0.00 | 76 | 1013.2 |
| 20260831222048 | 77 | 298 | 8.0 | 9.0 | 0.00 | 0.00 | 0.00 | 78 | 1013.5 |
| 20260831221545 | 77 | 239 | 10.0 | 14.0 | 0.00 | 0.00 | 0.00 | 76 | 1013.5 |
| 20260831221044 | 78 | 243 | 9.0 | 11.0 | 0.00 | 0.00 | 0.00 | 77 | 1013.2 |
| 20260831220544 | 78 | 162 | 7.0 | 8.0 | 0.00 | 0.00 | 0.00 | 77 | 1013.5 |
| 20260831220040 | 77 | 241 | 7.0 | 9.0 | 0.00 | 0.00 | 0.00 | 79 | 1013.5 |
| 20260831215536 | 77 | 236 | 9.0 | 10.0 | 0.00 | 0.00 | 0.00 | 77 | 1013.5 |
| 20260831215031 | 77 | 239 | 9.0 | 10.0 | 0.00 | 0.00 | 0.00 | 79 | 1013.5 |
| 20260831214529 | 77 | 230 | 6.0 | 9.0 | 0.00 | 0.00 | 0.00 | 77 | 1013.5 |
| 20260831214024 | 77 | 210 | 12.0 | 14.0 | 0.00 | 0.00 | 0.00 | 77 | 1013.5 |
| 20260831213521 | 78 | 263 | 6.0 | 10.0 | 0.00 | 0.00 | 0.00 | 77 | 1013.5 |
| 20260831213016 | 78 | 309 | 8.0 | 11.0 | 0.00 | 0.00 | 0.00 | 76 | 1013.5 |
| 20260831212512 | 77 | 236 | 10.0 | 13.0 | 0.00 | 0.00 | 0.00 | 77 | 1013.5 |
| 20260831212007 | 78 | 242 | 8.0 | 9.0 | 0.00 | 0.00 | 0.00 | 75 | 1013.9 |
| 20260831211502 | 78 | 235 | 9.0 | 14.0 | 0.00 | 0.00 | 0.00 | 76 | 1013.9 |
| 20260831211000 | 77 | 260 | 9.0 | 10.0 | 0.00 | 0.00 | 0.00 | 77 | 1013.9 |
| 20260831210456 | 78 | 274 | 9.0 | 10.0 | 0.00 | 0.00 | 0.00 | 75 | 1013.9 |
| 20260831205952 | 78 | 240 | 7.0 | 10.0 | 0.00 | 0.00 | 0.00 | 76 | 1013.9 |
| 20260831205447 | 78 | 243 | 9.0 | 11.0 | 0.00 | 0.00 | 0.00 | 75 | 1013.9 |
| 20260831204943 | 78 | 224 | 4.0 | 7.0 | 0.00 | 0.00 | 0.00 | 76 | 1013.5 |
| 20260831204442 | 80 | 224 | 7.0 | 9.0 | 0.00 | 0.00 | 0.00 | 74 | 1013.9 |
| 20260831203936 | 78 | 256 | 8.0 | 11.0 | 0.00 | 0.00 | 0.00 | 76 | 1013.9 |
| 20260831203435 | 78 | 272 | 9.0 | 10.0 | 0.00 | 0.00 | 0.00 | 77 | 1013.9 |
| 20260831202933 | 78 | 265 | 10.0 | 11.0 | 0.00 | 0.00 | 0.00 | 77 | 1013.9 |
| 20260831202429 | 78 | 180 | 5.0 | 11.0 | 0.00 | 0.00 | 0.00 | 78 | 1013.9 |
| 20260831201923 | 78 | 200 | 7.0 | 9.0 | 0.00 | 0.00 | 0.00 | 76 | 1014.2 |
| 20260831201422 | 78 | 245 | 7.0 | 11.0 | 0.00 | 0.00 | 0.00 | 77 | 1013.9 |
| 20260831200919 | 78 | 254 | 8.0 | 10.0 | 0.00 | 0.00 | 0.00 | 76 | 1014.2 |
| 20260831200414 | 79 | 203 | 7.0 | 8.0 | 0.00 | 0.00 | 0.00 | 75 | 1014.2 |
| 20260831195913 | 79 | 243 | 6.0 | 8.0 | 0.00 | 0.00 | 0.00 | 75 | 1014.2 |
| 20260831195409 | 77 | 229 | 5.0 | 8.0 | 0.00 | 0.00 | 0.00 | 77 | 1014.2 |
| 20260831194904 | 79 | 172 | 0.0 | 0.0 | 0.00 | 0.00 | 0.00 | 75 | 1014.2 |
| 20260831194359 | 78 | 219 | 5.0 | 6.0 | 0.00 | 0.00 | 0.00 | 76 | 1014.2 |
| 20260831193859 | 78 | 245 | 3.0 | 5.0 | 0.00 | 0.00 | 0.00 | 76 | 1014.6 |
| 20260831193354 | 79 | 257 | 6.0 | 8.0 | 0.00 | 0.00 | 0.00 | 75 | 1014.2 |
| 20260831192849 | 79 | 245 | 6.0 | 8.0 | 0.00 | 0.00 | 0.00 | 76 | 1014.6 |
| 20260831192344 | 79 | 262 | 7.0 | 8.0 | 0.00 | 0.00 | 0.00 | 74 | 1014.6 |
| 20260831191840 | 78 | 237 | 7.0 | 8.0 | 0.00 | 0.00 | 0.00 | 76 | 1014.2 |
| 20260831191336 | 79 | 241 | 5.0 | 8.0 | 0.00 | 0.00 | 0.00 | 75 | 1014.6 |
| 20260831190832 | 79 | 254 | 4.0 | 5.0 | 0.00 | 0.00 | 0.00 | 75 | 1014.6 |
| 20260831190331 | 79 | 265 | 7.0 | 9.0 | 0.00 | 0.00 | 0.00 | 74 | 1014.6 |
| 20260831185831 | 78 | 237 | 4.0 | 7.0 | 0.00 | 0.00 | 0.00 | 77 | 1014.2 |
| 20260831185326 | 79 | 232 | 4.0 | 6.0 | 0.00 | 0.00 | 0.00 | 75 | 1014.6 |
| 20260831184825 | 78 | 260 | 6.0 | 7.0 | 0.00 | 0.00 | 0.00 | 77 | 1014.2 |
| 20260831184321 | 78 | 247 | 6.0 | 8.0 | 0.00 | 0.00 | 0.00 | 78 | 1014.2 |
| 20260831183816 | 78 | 226 | 4.0 | 5.0 | 0.00 | 0.00 | 0.00 | 77 | 1014.2 |
| 20260831183315 | 79 | 246 | 4.0 | 6.0 | 0.00 | 0.00 | 0.00 | 75 | 1014.2 |
| 20260831182815 | 79 | 239 | 6.0 | 9.0 | 0.00 | 0.00 | 0.00 | 75 | 1014.6 |
| 20260831182310 | 80 | 278 | 8.0 | 10.0 | 0.00 | 0.00 | 0.00 | 74 | 1014.2 |
| 20260831181805 | 80 | 140 | 4.0 | 5.0 | 0.00 | 0.00 | 0.00 | 75 | 1014.6 |
| 20260831181300 | 79 | 130 | 2.0 | 2.0 | 0.00 | 0.00 | 0.00 | 76 | 1014.6 |
| 20260831180755 | 79 | 233 | 5.0 | 7.0 | 0.00 | 0.00 | 0.00 | 75 | 1014.6 |
| 20260831180250 | 79 | 359 | 0.0 | 0.0 | 0.00 | 0.00 | 0.00 | 75 | 1014.6 |
| 20260831175748 | 79 | 356 | 0.0 | 0.0 | 0.00 | 0.00 | 0.00 | 75 | 1014.2 |
| 20260831175240 | 79 | 138 | 2.0 | 2.0 | 0.00 | 0.00 | 0.00 | 75 | 1014.2 |
| 20260831174735 | 79 | 75 | 0.0 | 0.0 | 0.00 | 0.00 | 0.00 | 75 | 1014.2 |
| 20260831174231 | 79 | 128 | 0.0 | 0.0 | 0.00 | 0.00 | 0.00 | 76 | 1014.2 |
| 20260831173729 | 78 | 100 | 0.0 | 1.0 | 0.00 | 0.00 | 0.00 | 76 | 1014.6 |
| 20260831173229 | 78 | 138 | 3.0 | 3.0 | 0.00 | 0.00 | 0.00 | 76 | 1014.6 |
| 20260831172725 | 79 | 86 | 0.0 | 0.0 | 0.00 | 0.00 | 0.00 | 74 | 1014.6 |
| 20260831172220 | 78 | 255 | 0.0 | 0.0 | 0.00 | 0.00 | 0.00 | 76 | 1014.6 |
| 20260831171714 | 77 | 100 | 0.0 | 0.0 | 0.00 | 0.00 | 0.00 | 77 | 1014.6 |
| 20260831171212 | 78 | 216 | 0.0 | 0.0 | 0.00 | 0.00 | 0.00 | 78 | 1014.6 |
| 20260831170708 | 78 | 121 | 3.0 | 5.0 | 0.00 | 0.00 | 0.00 | 77 | 1014.9 |
| 20260831170205 | 76 | 80 | 1.0 | 2.0 | 0.00 | 0.00 | 0.00 | 80 | 1014.6 |
| 20260831165700 | 76 | 131 | 3.0 | 3.0 | 0.00 | 0.00 | 0.00 | 80 | 1014.6 |
| 20260831165156 | 75 | 67 | 1.0 | 2.0 | 0.00 | 0.00 | 0.00 | 82 | 1014.2 |
| 20260831164652 | 75 | 30 | 1.0 | 2.0 | 0.00 | 0.00 | 0.00 | 82 | 1014.6 |
| 20260831164148 | 75 | 152 | 3.0 | 3.0 | 0.00 | 0.00 | 0.00 | 81 | 1014.2 |
| 20260831163643 | 75 | 125 | 2.0 | 2.0 | 0.00 | 0.00 | 0.00 | 81 | 1013.9 |
| 20260831163139 | 75 | 149 | 0.0 | 0.0 | 0.00 | 0.00 | 0.00 | 83 | 1014.2 |
| 20260831162638 | 75 | 117 | 0.0 | 0.0 | 0.00 | 0.00 | 0.00 | 83 | 1014.2 |
| 20260831162135 | 75 | 147 | 0.0 | 0.0 | 0.00 | 0.00 | 0.00 | 82 | 1013.9 |
| 20260831161631 | 77 | 118 | 0.0 | 0.0 | 0.00 | 0.00 | 0.00 | 80 | 1013.9 |
| 20260831161128 | 76 | 66 | 0.0 | 0.0 | 0.00 | 0.00 | 0.00 | 80 | 1014.2 |
| 20260831160627 | 74 | 51 | 0.0 | 0.0 | 0.00 | 0.00 | 0.00 | 83 | 1014.2 |
| 20260831160123 | 75 | 93 | 0.0 | 0.0 | 0.00 | 0.00 | 0.00 | 83 | 1013.9 |
| 20260831155617 | 73 | 57 | 0.0 | 0.0 | 0.00 | 0.00 | 0.00 | 86 | 1013.9 |
| 20260831155112 | 73 | 158 | 0.0 | 0.0 | 0.00 | 0.00 | 0.00 | 87 | 1013.9 |
| 20260831154608 | 73 | 157 | 0.0 | 0.0 | 0.00 | 0.00 | 0.00 | 87 | 1014.2 |
| 20260831154108 | 72 | 113 | 0.0 | 0.0 | 0.00 | 0.00 | 0.00 | 88 | 1014.2 |
| 20260831153607 | 72 | 45 | 0.0 | 0.0 | 0.00 | 0.00 | 0.00 | 88 | 1013.9 |
| 20260831153104 | 72 | 77 | 0.0 | 0.0 | 0.00 | 0.00 | 0.00 | 88 | 1014.2 |
| 20260831152559 | 72 | 53 | 0.0 | 0.0 | 0.00 | 0.00 | 0.00 | 89 | 1013.9 |
| 20260831152049 | 71 | 53 | 0.0 | 0.0 | 0.00 | 0.00 | 0.00 | 89 | 1013.9 |
| 20260831151548 | 72 | 64 | 0.0 | 0.0 | 0.00 | 0.00 | 0.00 | 90 | 1013.9 |
| 20260831151048 | 71 | 66 | 0.0 | 0.0 | 0.00 | 0.00 | 0.00 | 90 | 1013.9 |
| 20260831150538 | 71 | 70 | 0.0 | 0.0 | 0.00 | 0.00 | 0.00 | 90 | 1013.9 |
| 20260831150034 | 71 | 72 | 0.0 | 0.0 | 0.00 | 0.00 | 0.00 | 90 | 1013.9 |
| 20260831145528 | 70 | 73 | 0.0 | 0.0 | 0.00 | 0.00 | 0.00 | 91 | 1013.9 |
| 20260831145025 | 70 | 72 | 0.0 | 0.0 | 0.00 | 0.00 | 0.00 | 91 | 1013.9 |
| 20260831144520 | 69 | 73 | 0.0 | 0.0 | 0.00 | 0.00 | 0.00 | 91 | 1013.9 |
| 20260831144015 | 69 | 64 | 0.0 | 0.0 | 0.00 | 0.00 | 0.00 | 92 | 1013.5 |
| 20260831143510 | 68 | 63 | 0.0 | 0.0 | 0.00 | 0.00 | 0.00 | 93 | 1013.5 |
| 20260831143005 | 68 | 45 | 0.0 | 0.0 | 0.00 | 0.00 | 0.00 | 95 | 1013.5 |
| 20260831142502 | 67 | 23 | 0.0 | 0.0 | 0.00 | 0.00 | 0.00 | 96 | 1013.5 |
| 20260831141956 | 67 | 18 | 0.0 | 0.0 | 0.00 | 0.00 | 0.00 | 96 | 1013.2 |
| 20260831141455 | 67 | 17 | 0.0 | 0.0 | 0.00 | 0.00 | 0.00 | 97 | 1013.2 |
| 20260831140950 | 67 | 17 | 0.0 | 0.0 | 0.00 | 0.00 | 0.00 | 97 | 1013.5 |
| 20260831140445 | 66 | 16 | 0.0 | 0.0 | 0.00 | 0.00 | 0.00 | 97 | 1013.5 |
| 20260831135944 | 66 | 7 | 0.0 | 0.0 | 0.00 | 0.00 | 0.00 | 97 | 1013.2 |
| 20260831135443 | 66 | 2 | 0.0 | 0.0 | 0.00 | 0.00 | 0.00 | 98 | 1013.2 |
| 20260831134938 | 65 | 2 | 0.0 | 0.0 | 0.00 | 0.00 | 0.00 | 98 | 1013.2 |
| 20260831134434 | 66 | 1 | 0.0 | 0.0 | 0.00 | 0.00 | 0.00 | 98 | 1012.9 |
| 20260831133929 | 65 | 359 | 0.0 | 0.0 | 0.00 | 0.00 | 0.00 | 98 | 1012.9 |
| 20260831133429 | 66 | 358 | 0.0 | 0.0 | 0.00 | 0.00 | 0.00 | 98 | 1012.9 |
| 20260831132924 | 65 | 357 | 0.0 | 0.0 | 0.00 | 0.00 | 0.00 | 98 | 1012.9 |
| 20260831132419 | 66 | 357 | 0.0 | 0.0 | 0.00 | 0.00 | 0.00 | 98 | 1012.9 |
| 20260831131918 | 66 | 357 | 0.0 | 0.0 | 0.00 | 0.00 | 0.00 | 98 | 1012.9 |
| 20260831131414 | 66 | 356 | 0.0 | 0.0 | 0.00 | 0.00 | 0.00 | 97 | 1012.9 |
| 20260831130909 | 66 | 355 | 0.0 | 0.0 | 0.00 | 0.00 | 0.00 | 97 | 1012.9 |
| 20260831130405 | 66 | 355 | 0.0 | 0.0 | 0.00 | 0.00 | 0.00 | 97 | 1012.9 |
| 20260831125904 | 66 | 355 | 0.0 | 0.0 | 0.00 | 0.00 | 0.00 | 97 | 1012.9 |
| 20260831125359 | 66 | 354 | 0.0 | 0.0 | 0.00 | 0.00 | 0.00 | 97 | 1012.5 |
| 20260831124854 | 66 | 353 | 0.0 | 0.0 | 0.00 | 0.00 | 0.00 | 97 | 1012.9 |
| 20260831124350 | 66 | 350 | 0.0 | 0.0 | 0.00 | 0.00 | 0.00 | 97 | 1012.5 |
| 20260831123845 | 66 | 349 | 0.0 | 0.0 | 0.00 | 0.00 | 0.00 | 97 | 1012.5 |
| 20260831123344 | 66 | 349 | 0.0 | 0.0 | 0.00 | 0.00 | 0.00 | 96 | 1012.5 |
| 20260831122839 | 66 | 349 | 0.0 | 0.0 | 0.00 | 0.00 | 0.00 | 96 | 1012.5 |
| 20260831122334 | 66 | 349 | 0.0 | 0.0 | 0.00 | 0.00 | 0.00 | 96 | 1012.9 |
| 20260831121828 | 66 | 349 | 0.0 | 0.0 | 0.00 | 0.00 | 0.00 | 96 | 1012.5 |
| 20260831121325 | 67 | 349 | 0.0 | 0.0 | 0.00 | 0.00 | 0.00 | 96 | 1012.5 |
| 20260831120820 | 67 | 349 | 0.0 | 0.0 | 0.00 | 0.00 | 0.00 | 96 | 1012.5 |
| 20260831120314 | 67 | 349 | 0.0 | 0.0 | 0.00 | 0.00 | 0.00 | 96 | 1012.5 |
| 20260831115809 | 67 | 348 | 0.0 | 0.0 | 0.00 | 0.00 | 0.00 | 96 | 1012.5 |
| 20260831115306 | 67 | 348 | 0.0 | 0.0 | 0.00 | 0.00 | 0.00 | 95 | 1012.9 |
| 20260831114804 | 67 | 348 | 0.0 | 0.0 | 0.00 | 0.00 | 0.00 | 95 | 1012.5 |
| 20260831114259 | 67 | 348 | 0.0 | 0.0 | 0.00 | 0.00 | 0.00 | 95 | 1012.5 |
| 20260831113754 | 68 | 348 | 0.0 | 0.0 | 0.00 | 0.00 | 0.00 | 95 | 1012.5 |
| 20260831113254 | 68 | 347 | 0.0 | 0.0 | 0.00 | 0.00 | 0.00 | 95 | 1012.5 |